Regional Weather Roundup
Issued by NWS

Home | Current Version | Previous Version | Text Only | Print | Product List | Glossary Off
Versions: 1 2 3 4 5 6 7 8 9 10 11 12 13 14 15 16 17 18 19 20 21 22 23 24 25 26

000
ASUS45 KBOI 260410
RWRID

IDAHO REGIONAL WEATHER ROUNDUP
NATIONAL WEATHER SERVICE BOISE ID
1000 PM MDT WED MAY 25 2016

NOTE: "FAIR" INDICATES FEW OR NO CLOUDS BELOW 12000 FEET
WITH NO SIGNIFICANT WEATHER AND/OR OBSTRUCTIONS TO VISIBILITY

IDZ012-014-260500-
SOUTHWEST IDAHO


CITY           SKY/WX    TMP DP  RH WIND       PRES   REMARKS
BOISE          CLEAR     64  40  41 CALM      29.97R
CALDWELL       CLEAR     63  42  46 CALM      29.97R
MOUNTAIN HOME  PTCLDY    63  43  47 NW6       29.98R
$$

IDZ016-017-260500-
SOUTHCENTRAL IDAHO


CITY           SKY/WX    TMP DP  RH WIND       PRES   REMARKS
BURLEY         CLOUDY    55  42  61 SW8       30.02R
JEROME         CLEAR     56  40  55 S6        30.02R
TWIN FALLS     MOCLDY    50  41  71 S10       30.03R
$$

IDZ019>023-260500-
SOUTHEAST IDAHO


CITY           SKY/WX    TMP DP  RH WIND       PRES   REMARKS
IDAHO FALLS    CLOUDY    52  42  69 S8        30.04R
POCATELLO      CLOUDY    51  43  74 S3        30.04R
REXBURG        CLOUDY    49  41  74 SE3       30.04R
$$

IDZ006-010-011-018-031-032-260500-
CENTRAL IDAHO MOUNTAINS


CITY           SKY/WX    TMP DP  RH WIND       PRES   REMARKS
MCCALL         CLEAR     52  35  52 N7        30.05R
HAILEY         PTCLDY    45  39  81 W9        30.08R
STANLEY          N/A     42  34  73 S7        30.09R
SALMON         PTCLDY    57  34  41 NE7       29.99R
CHALLIS        CLOUDY    55  37  50 SE8       30.02R
$$

IDZ002-004-006-007-026-260500-
NORTHERN IDAHO


CITY           SKY/WX    TMP DP  RH WIND       PRES   REMARKS
LEWISTON       MOCLDY    68  45  43 S6        29.99R
LOWELL           N/A     54  52  93 CALM      30.05R
COEUR D`ALENE  CLOUDY    64  48  55 MISG      29.95S
MULLAN PASS    CLOUDY    45  42  89 NW5       30.08R
$$




USA.gov is the U.S. government's official web portal to all federal, state and local government web resources and services.